EN

Hourly Weather Bolshoe Dumchino

Today, 22 October, Thursday

Time Temperature Precipitation Wind Pressure Humidity
00:00 +4°C° 0 mm 3 mps 743 mmHg 94%
01:00 +5°C° 0 mm 2 mps 743 mmHg 95%
02:00 +6°C° 0 mm 1 mps 743 mmHg 94%
03:00 +6°C° 0 mm 1 mps 743 mmHg 93%
04:00 +6°C° 0 mm 1 mps 743 mmHg 93%
05:00 +6°C° 0 mm 1 mps 743 mmHg 93%
06:00 +5°C° 0 mm 2 mps 743 mmHg 92%
07:00 +5°C° 0 mm 2 mps 743 mmHg 91%
08:00 +6°C° 0 mm 2 mps 743 mmHg 89%
09:00 +5°C° 0 mm 3 mps 743 mmHg 85%
10:00 +7°C° 0 mm 3 mps 743 mmHg 81%
11:00 +7°C° 0 mm 4 mps 743 mmHg 77%
12:00 +7°C° 0 mm 4 mps 742 mmHg 77%
13:00 +8°C° 0 mm 4 mps 742 mmHg 76%
14:00 +8°C° 0 mm 4 mps 742 mmHg 76%
15:00 +7°C° 0.2 mm 4 mps 741 mmHg 79%
16:00 +7°C° 0.2 mm 5 mps 740 mmHg 82%
17:00 +7°C° 0.2 mm 5 mps 740 mmHg 84%
18:00 +7°C° 0 mm 5 mps 739 mmHg 84%
19:00 +6°C° 0 mm 5 mps 739 mmHg 83%
20:00 +6°C° 0 mm 5 mps 739 mmHg 83%
21:00 +6°C° 0 mm 5 mps 739 mmHg 84%
22:00 +6°C° 0 mm 5 mps 738 mmHg 86%
23:00 +6°C° 0 mm 5 mps 738 mmHg 88%

Tomorrow, 23 October, Friday

Time Temperature Precipitation Wind Pressure Humidity
00:00 +6°C° 0 mm 5 mps 738 mmHg 89%
01:00 +7°C° 0 mm 5 mps 738 mmHg 91%
02:00 +7°C° 0 mm 6 mps 738 mmHg 93%
03:00 +7°C° 0 mm 6 mps 738 mmHg 93%
04:00 +8°C° 0 mm 6 mps 738 mmHg 92%
05:00 +8°C° 0 mm 6 mps 738 mmHg 92%
06:00 +8°C° 0 mm 6 mps 738 mmHg 92%
07:00 +8°C° 0 mm 6 mps 739 mmHg 92%
08:00 +8°C° 0 mm 6 mps 739 mmHg 92%
09:00 +9°C° 0 mm 6 mps 739 mmHg 87%
10:00 +11°C° 0 mm 6 mps 739 mmHg 82%
11:00 +13°C° 0 mm 6 mps 739 mmHg 76%
12:00 +13°C° 0 mm 6 mps 739 mmHg 76%
13:00 +14°C° 0 mm 6 mps 738 mmHg 75%
14:00 +14°C° 0 mm 6 mps 738 mmHg 74%
15:00 +13°C° 0 mm 6 mps 738 mmHg 76%
16:00 +13°C° 0 mm 5 mps 737 mmHg 79%
17:00 +12°C° 0 mm 5 mps 737 mmHg 81%
18:00 +12°C° 0.1 mm 5 mps 736 mmHg 82%
19:00 +11°C° 0.1 mm 6 mps 736 mmHg 83%
20:00 +11°C° 0.1 mm 6 mps 736 mmHg 83%
21:00 +11°C° 0.3 mm 6 mps 736 mmHg 85%
22:00 +12°C° 0.3 mm 5 mps 736 mmHg 88%
23:00 +12°C° 0.3 mm 5 mps 736 mmHg 90%

Day after tomorrow, 24 October, Saturday

Time Temperature Precipitation Wind Pressure Humidity
00:00 +10°C° 0 mm 5 mps 736 mmHg 91%
01:00 +10°C° 0 mm 5 mps 736 mmHg 93%
02:00 +10°C° 0 mm 4 mps 737 mmHg 94%
03:00 +10°C° 0 mm 4 mps 737 mmHg 93%
04:00 +10°C° 0 mm 4 mps 737 mmHg 92%
05:00 +9°C° 0 mm 3 mps 737 mmHg 91%
06:00 +9°C° 0 mm 3 mps 737 mmHg 91%
07:00 +9°C° 0 mm 3 mps 738 mmHg 92%
08:00 +9°C° 0 mm 3 mps 738 mmHg 92%
09:00 +10°C° 0 mm 3 mps 738 mmHg 88%
10:00 +11°C° 0 mm 3 mps 738 mmHg 83%
11:00 +11°C° 0 mm 3 mps 738 mmHg 78%
12:00 +12°C° 0 mm 3 mps 738 mmHg 76%
13:00 +12°C° 0 mm 3 mps 738 mmHg 73%
14:00 +12°C° 0 mm 3 mps 738 mmHg 71%
15:00 +12°C° 0 mm 2 mps 738 mmHg 75%
16:00 +12°C° 0 mm 2 mps 738 mmHg 80%
17:00 +11°C° 0 mm 1 mps 738 mmHg 84%
18:00 +10°C° 0 mm 1 mps 738 mmHg 86%
19:00 +10°C° 0 mm 1 mps 738 mmHg 87%
20:00 +10°C° 0 mm 1 mps 738 mmHg 89%
21:00 +10°C° 0 mm 1 mps 738 mmHg 89%
22:00 +10°C° 0 mm 1 mps 738 mmHg 88%
23:00 +10°C° 0 mm 1 mps 738 mmHg 88%

, 25 October, Sunday

Time Temperature Precipitation Wind Pressure Humidity
00:00 +10°C° 1 mm 1 mps 738 mmHg 91%
01:00 +9°C° 1 mm 1 mps 737 mmHg 94%
02:00 +8°C° 1 mm 2 mps 737 mmHg 96%
03:00 +8°C° 0.6 mm 2 mps 737 mmHg 96%
04:00 +8°C° 0.6 mm 2 mps 737 mmHg 95%
05:00 +8°C° 0.6 mm 2 mps 738 mmHg 94%
06:00 +8°C° 0 mm 2 mps 738 mmHg 92%
07:00 +8°C° 0 mm 3 mps 738 mmHg 90%
08:00 +8°C° 0 mm 3 mps 738 mmHg 87%
09:00 +8°C° 0 mm 4 mps 739 mmHg 83%
10:00 +10°C° 0 mm 4 mps 739 mmHg 80%
11:00 +9°C° 0 mm 5 mps 739 mmHg 76%
12:00 +9°C° 0 mm 5 mps 740 mmHg 77%
13:00 +9°C° 0 mm 5 mps 740 mmHg 78%
14:00 +9°C° 0 mm 5 mps 740 mmHg 79%
15:00 +9°C° 0 mm 5 mps 741 mmHg 78%
16:00 +8°C° 0 mm 4 mps 741 mmHg 77%
17:00 +8°C° 0 mm 4 mps 742 mmHg 76%
18:00 +8°C° 0 mm 4 mps 742 mmHg 77%
19:00 +7°C° 0 mm 4 mps 743 mmHg 78%
20:00 +8°C° 0 mm 3 mps 744 mmHg 79%
21:00 +7°C° 0 mm 3 mps 744 mmHg 80%
22:00 +7°C° 0 mm 3 mps 744 mmHg 82%
23:00 +5°C° 0 mm 3 mps 745 mmHg 83%

25 October, Sunday

Time Temperature Precipitation Wind Pressure Humidity
00:00 +10°C° 1 mm 1 mps 738 mmHg 91%
01:00 +9°C° 1 mm 1 mps 737 mmHg 94%
02:00 +8°C° 1 mm 2 mps 737 mmHg 96%
03:00 +8°C° 0.6 mm 2 mps 737 mmHg 96%
04:00 +8°C° 0.6 mm 2 mps 737 mmHg 95%
05:00 +8°C° 0.6 mm 2 mps 738 mmHg 94%
06:00 +8°C° 0 mm 2 mps 738 mmHg 92%
07:00 +8°C° 0 mm 3 mps 738 mmHg 90%
08:00 +8°C° 0 mm 3 mps 738 mmHg 87%
09:00 +8°C° 0 mm 4 mps 739 mmHg 83%
10:00 +10°C° 0 mm 4 mps 739 mmHg 80%
11:00 +9°C° 0 mm 5 mps 739 mmHg 76%
12:00 +9°C° 0 mm 5 mps 740 mmHg 77%
13:00 +9°C° 0 mm 5 mps 740 mmHg 78%
14:00 +9°C° 0 mm 5 mps 740 mmHg 79%
15:00 +9°C° 0 mm 5 mps 741 mmHg 78%
16:00 +8°C° 0 mm 4 mps 741 mmHg 77%
17:00 +8°C° 0 mm 4 mps 742 mmHg 76%
18:00 +8°C° 0 mm 4 mps 742 mmHg 77%
19:00 +7°C° 0 mm 4 mps 743 mmHg 78%
20:00 +8°C° 0 mm 3 mps 744 mmHg 79%
21:00 +7°C° 0 mm 3 mps 744 mmHg 80%
22:00 +7°C° 0 mm 3 mps 744 mmHg 82%
23:00 +5°C° 0 mm 3 mps 745 mmHg 83%

26 October, Monday

Time Temperature Precipitation Wind Pressure Humidity
00:00 +4°C° 0 mm 3 mps 745 mmHg 85%
01:00 +5°C° 0 mm 2 mps 745 mmHg 86%
02:00 +4°C° 0 mm 2 mps 746 mmHg 88%
03:00 +4°C° 0 mm 2 mps 746 mmHg 89%
04:00 +4°C° 0 mm 2 mps 746 mmHg 90%
05:00 +3°C° 0 mm 2 mps 747 mmHg 91%
06:00 +4°C° 0 mm 2 mps 747 mmHg 90%
07:00 +5°C° 0 mm 1 mps 748 mmHg 88%
08:00 +6°C° 0 mm 1 mps 748 mmHg 87%
09:00 +7°C° 0 mm 1 mps 748 mmHg 81%
10:00 +8°C° 0 mm 1 mps 748 mmHg 75%
11:00 +9°C° 0 mm 1 mps 748 mmHg 69%
12:00 +10°C° 0 mm 1 mps 748 mmHg 66%
13:00 +9°C° 0 mm 0 mps 748 mmHg 64%
14:00 +9°C° 0 mm 0 mps 748 mmHg 61%
15:00 +9°C° 0 mm 1 mps 748 mmHg 66%
16:00 +8°C° 0 mm 1 mps 748 mmHg 70%
17:00 +7°C° 0 mm 1 mps 748 mmHg 75%
18:00 +6°C° 0 mm 2 mps 749 mmHg 77%
19:00 +6°C° 0 mm 2 mps 749 mmHg 79%
20:00 +5°C° 0 mm 2 mps 749 mmHg 81%
21:00 +5°C° 0 mm 2 mps 749 mmHg 83%
22:00 +5°C° 0 mm 2 mps 749 mmHg 84%
23:00 +3°C° 0 mm 3 mps 749 mmHg 85%

27 October, Tuesday

Time Temperature Precipitation Wind Pressure Humidity
00:00 +3°C° 0 mm 3 mps 749 mmHg 87%
01:00 +3°C° 0 mm 3 mps 749 mmHg 88%
02:00 +2°C° 0 mm 3 mps 749 mmHg 89%
03:00 +2°C° 0 mm 3 mps 749 mmHg 89%
04:00 +2°C° 0 mm 3 mps 750 mmHg 89%
05:00 +2°C° 0 mm 3 mps 750 mmHg 90%
06:00 +2°C° 0 mm 3 mps 750 mmHg 87%
07:00 +3°C° 0 mm 4 mps 750 mmHg 85%
08:00 +3°C° 0 mm 4 mps 750 mmHg 83%
09:00 +5°C° 0 mm 4 mps 750 mmHg 78%
10:00 +6°C° 0 mm 5 mps 750 mmHg 72%
11:00 +7°C° 0 mm 5 mps 750 mmHg 67%
12:00 +7°C° 0 mm 5 mps 750 mmHg 66%
13:00 +8°C° 0 mm 5 mps 750 mmHg 65%
14:00 +8°C° 0 mm 4 mps 749 mmHg 65%
15:00 +7°C° 0 mm 4 mps 749 mmHg 67%
16:00 +7°C° 0 mm 4 mps 749 mmHg 69%
17:00 +6°C° 0 mm 4 mps 749 mmHg 72%
18:00 +6°C° 0 mm 4 mps 749 mmHg 72%
19:00 +6°C° 0 mm 4 mps 749 mmHg 72%
20:00 +6°C° 0 mm 5 mps 749 mmHg 73%
21:00 +6°C° 0 mm 4 mps 748 mmHg 73%
22:00 +6°C° 0 mm 4 mps 748 mmHg 74%
23:00 +6°C° 0 mm 4 mps 748 mmHg 74%
Show more